{"data":{"norad_id":51782,"epoch":"2026-05-24T23:47:08.172384Z","epoch_age_seconds":86258,"freshness":"FRESH","line1":"1 51782U 22017Q   26144.99106681  .00000743  00000+0  64792-4 0  9997","line2":"2 51782  53.2134   6.7432 0001235  98.2510 261.8622 15.08833752233705","mean_motion":15.08833752,"eccentricity":0.0001235,"inclination_deg":53.2134,"raan_deg":6.7432,"arg_perigee_deg":98.251,"mean_anomaly_deg":261.8622,"bstar":6.4792e-5,"rev_number":23370,"period_min":95.437949879584,"perigee_km":538.90812607985,"apogee_km":540.61684725306,"semimajor_km":6917.8994866665,"source":"CELESTRAK","updated_at":"2026-05-25T13:38:16.952744Z"}}